Flag for Ireland Weather past 2 weeks in Cork, Ireland

Now
42 °F

Scattered clouds.


Feels Like: 37 °F
Forecast: 36 / 50 °F
Wind: 8 mph from West

Location: Cork Airport

Current Time: Apr 27, 2015 at 8:30:48 PM

Latest Report: Apr 27, 2015 at 7:00 PM


Visibility: 19 mi

Pressure: 29.95 "Hg

Humidity: 63%

Dew point: 30 °F

Location of CorkLocation

Historic Weather in Cork — Graph

°F

Cork temperature yesterday

Maximum temperature yesterday: 52 °F (at 3:00 PM)
Minimum temperature yesterday: 36 °F (at 6:00 AM)
Average temperature yesterday: 44 °F

Past Weeks' High & Low Weather Summary

 TemperatureHumidityPressure
High59 °F (Apr 21, 3:00 PM)100% (Apr 13, 5:00 AM)30.58 "Hg (Apr 13, 5:00 AM)
Low36 °F (Apr 27, 6:00 AM)35% (Apr 26, 4:00 PM)29.61 "Hg (Apr 25, 6:00 AM)
Average48 °F79%30.14 "Hg
* Reported Apr 12 7:00 PM — Apr 27 7:00 PM, Cork, Weather by CustomWeather, © 2015

Note: Actual official high and low records may vary slightly from our data, if they occured in-between our weather recording intervals... More about our weather records

Advertising

Cork weather history for previous 24 hours

 ConditionsComfort  
Time TempWeatherWind HumidityBarometerVisibility
7:00 PM
Mon, Apr 27
42 °FScattered clouds.8 mph63%29.95 "Hg19 mi
6:00 PM46 °FScattered clouds.10 mph53%29.94 "Hg25 mi
5:00 PM47 °FScattered clouds.10 mph49%29.93 "Hg25 mi
4:00 PM47 °FOvercast.10 mph60%29.93 "Hg25 mi
3:00 PM46 °FSprinkles. Overcast.10 mph69%29.93 "Hg19 mi
2:00 PM46 °FPartly sunny.10 mph62%29.91 "Hg37 mi
1:00 PM45 °FPartly sunny.5 mph86%29.91 "Hg25 mi
12:00 PM47 °FPartly sunny.7 mph67%29.91 "Hg37 mi
11:00 AM47 °FPartly sunny.6 mph63%29.93 "Hg43 mi
10:00 AM45 °FScattered clouds.5 mph70%29.94 "Hg43 mi
9:00 AM42 °FScattered clouds.3 mph76%29.95 "Hg43 mi
8:00 AM38 °FScattered clouds.2 mph83%29.96 "Hg37 mi
7:00 AM36 °FScattered clouds.3 mph88%29.96 "Hg37 mi
6:00 AM36 °FPassing clouds.3 mph89%29.95 "Hg28 mi
5:00 AM36 °FPassing clouds.5 mph90%29.96 "Hg25 mi
4:00 AM36 °FPassing clouds.5 mph88%29.96 "Hg25 mi
3:00 AM36 °FPassing clouds.5 mph84%29.97 "Hg25 mi
2:00 AM37 °FPassing clouds.7 mph84%29.96 "Hg25 mi
1:00 AM38 °FPassing clouds.3 mph84%29.97 "Hg25 mi
12:00 AM39 °FPassing clouds.5 mph81%29.97 "Hg25 mi
11:00 PM
Sun, Apr 26
40 °FPassing clouds.5 mph77%29.98 "Hg25 mi
10:00 PM42 °FPassing clouds.5 mph73%29.97 "Hg31 mi
9:00 PM44 °FPassing clouds.6 mph61%29.95 "Hg37 mi
8:00 PM47 °FPassing clouds.8 mph55%29.93 "Hg37 mi
Weather by CustomWeather, © 2015

See weather overviewHow to use our weather pages